Theta_e
331 325 322 324 309 309 300 301 307 307 308 314 317 315 314 317 314 311 333 336 338 339 343 346 347 349 348 347 347 347 347 345 344 344 344 343 342 340 339 340 341 340 337 337 337 336 334 333 334
327 324 320 319 305 301 299 304 305 309 314 316 316 314 312 313 325 327 330 336 338 340 341 344 345 348 348 346 347 347 346 344 343 342 342 343 341 339 339 338 340 336 335 335 338 336 334 334 334
321 320 315 312 306 302 301 306 307 312 314 312 311 314 313 316 326 329 335 336 338 338 341 342 344 348 348 347 346 346 346 345 342 340 338 338 341 339 337 337 338 336 333 334 336 337 334 334 334
316 315 317 305 302 306 307 308 311 311 312 313 312 311 321 327 327 334 337 337 337 339 342 342 345 347 347 345 345 344 345 345 344 342 339 337 337 337 335 336 337 338 333 332 334 337 334 333 332
315 309 302 305 304 307 311 312 313 311 312 311 312 308 318 327 334 336 336 336 335 340 341 343 344 345 346 345 345 344 344 345 344 343 341 339 337 335 336 335 335 336 335 330 332 333 333 332 332
307 306 297 299 304 308 311 313 313 311 312 312 310 310 318 329 331 334 335 335 337 339 340 342 338 341 343 344 344 344 343 343 343 343 341 340 338 337 335 336 334 332 332 333 330 332 334 332 331
305 302 296 297 299 307 310 314 310 310 311 311 311 307 319 325 332 334 334 334 335 340 341 341 340 338 336 338 339 341 341 340 341 341 340 338 337 336 335 334 334 332 333 333 332 331 333 332 330
307 303 297 296 298 304 312 312 313 310 311 317 316 308 312 324 332 334 333 334 334 338 340 340 339 338 337 336 333 335 336 336 334 336 335 333 332 333 333 331 332 334 333 334 333 332 333 332 331
312 296 293 296 298 302 312 310 312 314 314 313 316 320 323 330 332 330 329 330 332 334 337 339 340 338 337 336 333 329 332 332 330 331 330 327 330 330 328 328 330 333 334 333 333 334 333 332 330
302 295 296 301 300 301 311 311 311 309 310 312 316 322 328 329 328 326 326 326 328 330 332 336 339 338 338 337 333 332 333 331 330 329 330 331 330 330 331 326 327 330 329 330 331 334 332 328 324
302 296 300 301 303 310 309 310 312 309 307 312 313 319 323 326 326 325 325 325 327 330 333 334 334 338 337 336 334 334 332 329 328 330 330 329 330 327 329 325 324 325 321 325 327 328 327 324 322
295 300 302 303 307 310 308 312 309 309 308 314 316 322 323 323 324 325 325 325 326 328 331 334 335 334 336 337 336 335 334 333 329 328 329 327 326 326 326 325 324 323 323 323 323 323 323 323 322
295 298 301 303 305 308 310 307 308 310 313 314 316 322 321 322 324 326 326 326 327 327 330 332 333 334 334 335 335 334 333 332 331 329 329 328 325 324 325 324 324 324 325 324 322 322 321 321 321
299 299 299 301 302 306 305 305 307 308 312 312 314 313 318 320 322 324 325 326 326 328 329 332 333 334 334 334 334 333 333 332 332 331 329 328 326 325 324 323 323 323 324 323 323 321 321 320 320
300 294 295 297 301 300 301 297 300 307 309 310 311 312 314 316 320 321 324 324 326 328 330 330 332 335 333 332 334 334 333 333 332 331 330 329 328 326 324 324 322 322 323 323 322 321 320 318 319
294 294 286 293 298 300 299 287 295 302 302 304 306 308 311 314 317 320 323 324 325 326 327 330 333 333 333 333 332 333 334 332 332 332 331 330 330 328 325 324 323 323 322 321 320 319 318 317 317
290 282 286 289 297 296 298 291 296 298 298 300 301 302 305 310 313 317 320 321 324 326 326 327 329 329 331 333 334 332 332 332 332 332 331 329 330 330 327 325 325 324 322 320 320 319 317 316 316
284 285 287 286 291 293 292 293 297 298 297 294 295 297 299 302 305 312 316 318 319 318 319 323 326 328 329 330 332 332 331 331 332 331 331 331 329 329 328 327 326 325 323 322 321 319 319 317 316
289 286 287 289 293 289 290 291 293 296 295 295 296 298 298 299 302 306 311 314 315 314 313 314 318 321 325 325 326 328 328 329 330 330 331 331 331 330 329 329 327 326 324 323 323 322 320 319 318
290 287 285 290 294 291 290 289 293 294 295 295 296 297 298 299 300 303 304 305 307 310 311 312 314 318 322 324 326 328 329 328 329 329 329 330 330 329 329 329 329 328 326 324 324 322 319 319 319
288 287 287 286 291 291 289 286 289 293 296 297 298 299 300 300 299 301 303 304 307 308 309 310 311 315 321 324 325 324 325 323 325 326 326 327 328 328 328 328 329 329 328 326 325 323 321 321 321
284 291 290 289 285 279 288 277 284 288 290 294 296 297 298 299 301 301 303 303 303 305 307 309 311 311 314 322 321 320 320 320 320 322 326 327 327 326 327 327 327 328 329 328 327 326 325 323 319
288 292 289 288 285 283 283 279 282 288 288 289 294 296 298 300 300 300 301 303 303 305 309 310 311 311 312 315 320 319 318 319 319 318 320 323 327 327 326 326 327 327 327 327 327 325 323 323 321
294 291 290 288 285 277 282 281 281 285 288 289 292 295 297 298 299 300 302 304 305 307 309 310 310 310 311 311 313 316 317 317 316 316 316 319 322 325 326 326 326 327 326 326 326 325 324 322 322
293 287 278 277 277 274 284 281 282 288 291 290 290 291 295 297 298 299 301 303 305 305 307 308 309 308 309 310 310 310 312 314 314 315 316 317 318 319 320 323 323 323 324 326 325 325 325 323 322
290 288 280 274 275 278 285 279 283 291 294 295 294 295 295 295 298 299 301 303 303 305 305 306 305 306 305 307 311 314 317 314 315 316 316 317 317 319 320 321 323 323 324 323 323 322 323 323 323
289 285 290 282 280 278 281 285 290 293 292 293 292 293 294 295 296 298 300 301 302 302 303 303 302 302 302 303 304 304 305 307 307 308 311 314 315 313 313 314 316 319 322 322 322 321 320 320 320
291 293 283 284 274 273 278 280 283 287 290 292 292 293 294 295 298 299 300 301 300 301 300 299 300 299 300 301 301 301 301 301 302 303 302 302 303 304 304 304 306 306 308 309 310 315 317 316 316
288 287 287 287 283 275 274 277 288 290 291 291 292 294 295 296 297 298 298 299 298 298 298 297 298 298 298 299 300 299 299 300 300 300 300 300 301 301 302 302 303 303 304 304 305 305 307 308 311
292 288 288 281 278 281 281 280 291 291 293 293 293 293 295 296 297 297 298 297 297 297 297 297 297 296 296 297 297 297 297 297 297 297 298 299 299 300 300 301 301 302 302 302 301 301 301 301 301
Wind_Speed
20 14 7 2 3 5 6 3 5 7 5 5 4 6 5 12 6 5 6 5 11 15 12 12 14 14 14 12 10 12 13 11 10 10 9 11 11 9 9 10 7 10 9 9 12 10 10 9 10
13 17 5 4 4 4 4 7 5 5 8 7 5 2 1 6 8 8 8 6 10 15 11 11 13 15 14 12 11 10 12 11 10 8 9 8 10 10 8 6 6 8 9 7 6 12 8 8 8
19 13 2 3 5 5 6 6 9 9 6 5 4 2 4 5 10 8 11 10 10 12 12 12 11 14 13 11 10 11 11 12 12 10 9 7 8 10 7 5 6 6 7 8 4 11 8 7 7
7 5 4 3 11 7 9 8 10 8 5 1 2 10 6 6 4 9 10 10 9 12 13 13 12 12 11 10 9 9 9 10 10 12 11 8 9 7 5 3 3 6 5 6 5 10 7 5 5
5 3 4 5 10 8 7 9 9 8 8 8 4 6 7 4 11 11 10 9 9 14 13 12 14 13 11 10 9 8 6 11 11 14 12 10 10 7 6 4 4 4 5 3 3 5 6 5 4
4 1 4 6 9 7 8 6 7 6 6 7 2 8 5 9 8 9 9 8 9 15 13 11 11 13 12 11 9 9 9 7 8 9 13 13 9 8 6 6 4 2 2 2 3 2 5 3 3
4 3 7 11 12 7 6 7 5 6 6 7 3 6 7 9 9 9 8 8 8 14 12 11 8 8 9 10 11 11 10 9 7 9 9 10 11 10 9 7 7 5 5 3 2 3 2 1 1
3 2 5 7 7 4 9 6 2 1 5 7 3 5 7 8 10 9 8 9 7 13 11 9 9 8 6 5 6 7 10 10 9 7 9 8 7 9 8 7 8 9 8 7 6 6 3 3 3
2 3 5 9 7 9 9 7 3 4 6 1 3 8 11 15 10 8 6 7 7 8 11 10 8 10 9 9 7 5 5 6 6 6 8 7 4 5 6 6 6 7 6 6 7 4 4 4 5
4 3 7 8 8 9 9 8 11 4 5 5 7 6 10 10 8 9 8 8 7 8 8 7 8 6 7 6 8 6 6 5 5 5 6 4 6 6 6 6 8 7 4 7 7 5 5 4 4
5 4 7 10 8 10 9 8 4 7 6 9 13 11 9 7 9 9 7 8 8 8 7 7 5 8 7 5 5 4 3 4 4 7 7 6 5 4 4 4 3 4 6 4 6 5 5 7 6
6 7 8 4 8 7 8 4 6 5 3 5 6 17 10 9 8 9 8 9 9 8 9 11 9 4 7 4 4 4 4 4 4 5 7 5 3 3 4 3 5 5 4 6 5 4 6 7 7
6 6 6 6 3 7 10 8 8 8 8 5 8 12 11 10 10 9 9 8 9 9 9 11 11 9 6 5 6 5 4 5 6 5 6 5 4 5 4 5 5 5 4 4 5 5 5 5 6
4 5 11 3 5 4 4 7 7 6 6 8 8 6 9 10 11 9 9 9 9 9 9 11 12 11 10 7 7 5 5 6 5 6 5 7 5 5 5 5 4 4 4 4 4 5 5 5 5
3 5 7 7 6 6 2 9 15 9 6 10 10 9 9 9 10 10 9 8 8 7 9 10 12 13 14 12 9 7 5 7 7 7 6 7 7 6 6 5 5 5 5 7 6 6 4 3 3
3 5 2 7 11 5 6 8 8 15 11 10 8 8 9 10 9 8 8 9 8 7 9 9 9 12 12 13 10 8 7 7 6 7 5 6 7 8 6 5 5 5 5 5 5 4 4 5 5
6 4 8 6 10 6 9 7 7 6 10 14 10 9 9 10 11 10 10 8 9 9 9 9 9 9 9 8 9 10 10 7 7 7 7 9 8 6 7 5 5 6 5 5 4 5 5 5 5
7 6 6 6 4 5 7 15 13 10 6 6 8 9 10 10 10 9 10 9 8 7 7 8 8 9 8 5 5 5 7 8 6 7 7 10 9 10 6 6 6 5 4 5 4 6 5 5 5
7 4 7 7 5 1 8 15 14 9 10 9 9 9 9 9 9 8 8 9 10 9 9 8 7 8 5 4 4 5 6 6 7 7 9 9 10 9 10 6 7 7 6 7 7 6 7 6 4
13 9 6 5 5 2 8 15 14 10 14 12 11 10 10 7 6 7 6 8 8 9 9 8 8 8 6 5 5 5 5 4 6 6 9 10 12 10 10 10 8 9 7 8 9 8 4 4 5
13 12 7 6 3 2 8 13 13 12 18 16 16 16 11 12 9 8 8 9 8 9 9 9 9 9 8 8 4 4 4 3 4 7 8 11 12 11 11 11 10 9 8 9 9 8 8 8 6
13 6 9 8 6 4 8 10 6 8 13 19 19 15 14 11 9 8 8 7 8 9 9 9 8 9 8 10 7 8 7 8 4 5 7 9 13 12 12 12 12 12 8 10 9 8 9 7 9
7 5 8 6 7 6 13 7 6 12 10 9 14 13 15 12 10 9 9 8 7 2 4 5 3 5 6 7 9 6 6 5 4 4 6 7 9 13 12 12 12 12 9 9 9 7 8 8 8
5 3 5 4 0 9 7 13 14 12 11 6 5 9 10 9 7 7 6 3 4 5 5 4 4 5 5 5 6 8 8 6 4 4 4 3 3 6 10 11 9 10 10 10 9 10 8 9 9
8 9 3 3 5 8 11 13 15 13 14 5 5 1 9 8 8 7 7 5 3 5 5 3 4 5 5 4 3 5 6 6 6 6 4 4 3 3 6 6 6 5 6 8 7 8 10 9 10
17 16 6 8 7 3 14 13 6 10 6 6 5 6 5 5 5 5 6 6 8 7 6 5 4 2 3 2 0 1 2 3 3 4 3 3 3 2 1 2 4 6 7 6 5 4 4 6 6
7 16 9 6 2 1 6 9 8 8 6 3 1 4 8 8 6 7 4 2 5 6 4 3 5 4 5 3 3 4 4 5 4 4 4 3 3 3 5 5 5 5 4 5 6 5 6 6 6
11 8 6 8 6 8 10 16 14 3 5 8 8 8 8 5 6 6 4 3 4 5 5 5 6 5 4 4 4 4 5 5 5 6 6 6 5 5 5 5 5 5 6 5 5 4 4 4 4
10 13 6 4 10 6 5 8 9 13 9 9 10 9 8 7 8 8 6 5 6 5 5 5 5 5 5 5 5 6 5 5 5 5 5 5 4 5 4 5 5 5 5 5 5 5 5 5 5
20 18 20 6 10 8 14 14 3 8 7 8 6 5 1 5 8 8 8 8 6 5 6 5 5 6 5 5 4 5 5 5 5 5 5 5 5 5 4 5 5 5 5 5 5 5 5 5 5
Wind_Direction
312 314 301 259 253 214 137 99 62 106 152 90 48 25 52 39 19 97 109 103 120 120 126 138 137 135 127 124 118 122 114 107 101 107 110 116 112 107 109 114 126 119 99 100 104 85 85 86 77
304 298 287 259 251 280 95 132 143 102 89 89 127 217 155 81 72 120 104 149 123 120 145 138 142 140 139 137 128 133 126 123 117 108 99 106 122 113 111 106 101 99 87 70 75 100 93 88 75
306 300 281 241 253 24 110 161 106 97 128 171 125 18 26 93 118 136 114 138 130 134 140 128 137 138 139 140 135 129 140 139 140 132 123 117 134 112 120 106 113 114 91 74 82 93 88 79 72
315 308 255 257 272 75 103 109 122 132 124 339 346 97 78 17 119 108 142 135 133 112 115 128 133 135 139 143 141 138 137 150 146 134 118 121 102 114 115 136 138 118 116 92 61 79 86 83 77
304 257 270 240 271 96 64 110 140 166 162 157 213 139 101 85 96 124 141 143 135 118 123 134 138 142 146 152 152 143 142 161 154 140 135 129 131 146 130 139 178 84 140 135 57 101 87 66 57
304 258 294 261 239 119 124 142 158 165 150 102 206 120 95 129 131 138 146 149 147 123 134 137 143 148 154 157 154 147 135 146 167 155 145 147 148 146 158 141 167 246 44 72 122 9 87 63 37
298 298 271 290 292 128 145 154 191 156 159 166 116 115 124 159 141 143 155 146 149 125 129 139 154 155 158 159 159 154 151 141 144 156 158 162 160 160 163 164 175 197 204 206 175 229 91 55 347
304 287 273 272 291 274 128 150 335 263 106 73 347 169 169 153 136 144 163 139 152 128 133 152 155 157 160 160 167 167 164 158 153 173 169 166 170 171 175 183 188 188 200 205 224 231 177 242 271
299 274 255 258 260 270 118 154 134 47 121 149 94 49 107 128 142 146 152 143 154 150 148 165 163 171 174 165 170 173 176 166 155 155 172 159 177 188 192 199 207 198 226 221 233 208 212 241 253
213 220 239 277 287 298 165 174 144 163 194 142 103 79 110 137 155 155 166 168 169 152 152 157 173 185 162 175 156 174 178 178 186 178 167 183 204 188 183 203 159 190 219 230 246 225 225 254 261
216 235 268 299 343 346 328 167 267 166 224 181 177 160 159 160 175 171 178 176 177 163 145 162 221 168 163 171 168 184 169 185 189 195 175 195 208 165 162 138 171 185 210 209 218 211 207 214 214
259 255 279 325 350 339 316 291 220 220 230 43 102 152 155 177 185 180 191 183 176 172 170 161 196 231 175 170 173 187 171 196 188 199 192 181 200 190 171 183 184 186 198 200 221 201 208 213 226
239 281 272 312 353 311 309 309 294 212 210 95 96 142 163 184 186 194 189 185 166 176 175 167 167 191 218 186 188 192 185 196 213 198 193 185 189 194 188 200 189 195 187 199 220 221 218 224 227
48 317 281 216 290 245 278 285 284 248 290 158 151 197 186 189 190 187 188 184 177 175 178 168 174 181 189 206 205 211 185 203 213 224 194 192 191 195 199 205 198 202 182 206 239 229 222 221 215
315 292 263 247 195 269 276 264 242 259 239 240 176 196 213 208 187 189 187 194 180 182 176 176 177 186 184 189 202 200 215 218 211 221 225 192 195 208 199 200 206 200 198 195 214 231 232 242 242
231 219 236 225 190 222 163 260 255 220 242 237 248 225 205 217 197 196 193 184 196 180 185 180 184 187 188 183 187 194 201 201 220 229 225 240 206 201 214 204 206 204 202 198 197 211 230 223 225
194 244 206 270 179 193 180 262 252 266 208 230 236 242 238 218 206 192 192 197 188 188 184 186 182 188 192 198 180 190 194 206 213 212 216 220 242 223 203 211 211 208 207 207 201 208 203 217 230
212 201 257 224 186 226 243 246 281 308 329 273 272 251 235 233 225 197 189 188 188 192 195 193 183 185 187 189 198 177 184 199 215 207 228 195 212 227 232 213 217 208 206 209 206 207 223 208 213
285 306 247 263 127 191 243 258 258 256 258 245 248 269 262 241 225 203 194 191 194 204 199 210 188 189 166 176 187 201 203 197 199 213 225 238 232 212 234 232 213 217 211 213 207 211 215 236 213
257 265 265 262 82 83 284 279 278 243 235 240 240 235 258 262 241 229 217 223 204 187 193 204 198 193 189 179 189 198 206 198 200 202 219 223 230 223 221 235 240 224 225 221 219 216 226 224 193
233 237 242 258 98 269 298 275 247 246 237 236 234 236 223 234 245 243 237 213 195 202 202 204 202 193 187 188 176 190 208 211 170 199 216 220 223 226 222 226 239 242 234 234 222 216 215 236 234
238 204 257 258 289 254 153 287 256 283 243 233 234 230 230 234 237 242 235 229 208 218 197 193 195 197 198 179 194 188 199 214 217 196 207 205 205 213 215 219 228 237 236 238 241 231 229 236 241
230 273 257 232 260 305 258 290 278 217 260 251 207 214 221 221 224 234 239 229 228 211 176 152 183 240 219 196 184 187 202 207 213 213 214 214 189 201 208 212 218 233 236 240 244 245 220 224 233
171 224 97 73 106 252 200 217 254 234 244 279 195 220 201 209 210 227 224 128 171 148 151 174 203 232 223 203 198 193 201 218 230 247 246 234 198 184 198 205 213 225 230 233 233 235 221 216 227
164 171 133 185 202 234 183 214 247 294 293 284 198 359 202 187 209 217 204 167 191 200 169 202 222 242 232 202 213 227 227 226 234 234 222 226 230 219 222 206 206 220 235 242 229 232 228 219 225
196 189 186 193 204 229 201 239 240 210 249 93 189 186 178 189 184 195 204 201 188 166 156 188 187 253 77 62 59 16 269 208 216 227 229 222 216 228 302 266 220 219 228 245 248 244 245 242 230
179 215 229 328 164 342 242 270 286 290 255 232 305 201 208 215 215 212 146 140 149 141 147 167 125 85 67 58 69 62 42 41 40 39 39 18 34 23 14 6 357 326 278 249 231 233 234 229 241
178 139 195 210 213 229 242 257 246 356 209 191 220 225 244 242 167 166 155 140 83 120 101 69 84 106 90 68 54 63 50 39 31 49 45 34 19 12 2 349 345 336 328 326 328 307 284 252 247
216 214 214 203 224 196 259 255 208 221 197 190 203 194 189 214 192 179 163 146 132 113 112 110 96 93 72 61 53 66 50 38 46 61 52 33 13 13 2 350 337 325 326 338 345 341 327 308 284
207 214 206 208 210 235 259 257 281 100 46 54 5 20 236 177 171 161 157 146 145 143 123 120 96 78 54 44 51 52 47 39 45 41 30 21 11 1 354 345 338 344 346 356 346 345 11 359 350